Weather History for Nashua, NH

Change the Weather History Date:

Sunday, August 10, 2014

  Actual Average Record
Temperature  
Mean Temperature 70 °F -  
Max Temperature 84 °F 81 °F 99 °F (1949)
Min Temperature 55 °F 58 °F 40 °F (1964)
Cooling Degree Days 4    
Growing Degree Days 20 (Base 50)    
Moisture  
Dew Point 55 °F    
Average Humidity 63    
Maximum Humidity 93    
Minimum Humidity 30    
Precipitation  
Precipitation 0.00 in - - ()
Sea Level Pressure  
Sea Level Pressure 30.85 in    
Wind  
Wind Speed 4 mph (NNW)    
Max Wind Speed 7 mph    
Max Gust Speed -    
Visibility 10 miles    
Events      
Averages and records for this station are not official NWS values.
T = Trace of Precipitation, MM = Missing Value Source: NWS Daily Summary

Daily Weather History Graph

Daily Weather History Graph

Search for Another Location

Airport:

Trip Planner

Search our weather history database for the weather conditions in past years. The results will help you decide how hot, cold, wet, or windy it might be!

Date:

Astronomy

Aug. 10, 2014 Rise Set
Actual Time 5:46 AM EDT 7:55 PM EDT
Civil Twilight 5:15 AM EDT 8:26 PM EDT
Nautical Twilight 4:37 AM EDT 9:04 PM EDT
Astronomical Twilight 3:55 AM EDT 9:45 PM EDT
Moon 7:37 PM EDT (8/10) 5:36 AM EDT (8/10)
Length of Visible Light 15h 10m
Length of Day
14h 08m
Full, 100% of the Moon is Illuminated
Aug 10
Full
Aug 10
Full
Aug 17
Last Quarter
Aug 25
New
Sep 2
First Quarter

Hourly Weather History & Observations

Time (EDT) Temp. Heat Index Dew Point Humidity Pressure Visibility Wind Dir Wind Speed Gust Speed Precip Events Conditions
12:51 AM 63.9 °F - 59.0 °F 84% 30.83 in 10.0 mi NW 3.5 mph - N/A   Clear
1:51 AM 63.9 °F - 57.9 °F 81% 30.83 in 10.0 mi NW 4.6 mph - N/A   Clear
2:51 AM 59.9 °F - 56.8 °F 90% 30.83 in 10.0 mi NW 4.6 mph - N/A   Clear
3:51 AM 59.0 °F - 55.9 °F 90% 30.84 in 10.0 mi NW 4.6 mph - N/A   Clear
4:51 AM 59.0 °F - 55.9 °F 90% 30.84 in 10.0 mi NW 3.5 mph - N/A   Clear
5:51 AM 55.9 °F - 54.0 °F 93% 30.85 in 10.0 mi NW 3.5 mph - N/A   Clear
6:51 AM 59.0 °F - 55.9 °F 90% 30.86 in 10.0 mi NNW 3.5 mph - N/A   Clear
7:51 AM 64.9 °F - 56.8 °F 75% 30.87 in 10.0 mi NNW 3.5 mph - N/A   Clear
8:51 AM 70.9 °F - 57.9 °F 63% 30.87 in 10.0 mi Calm Calm - N/A   Clear
10:51 AM 79.9 °F - 57.9 °F 47% 30.87 in 10.0 mi Calm Calm - N/A   Clear
11:51 AM 81.9 °F - 52.0 °F 35% 30.86 in 10.0 mi NW 6.9 mph - N/A   Clear
12:51 PM 82.9 °F - 52.0 °F 34% 30.84 in 10.0 mi Variable 4.6 mph - 0.00 in   Scattered Clouds
1:51 PM 83.8 °F - 50.9 °F 32% 30.84 in 10.0 mi North 6.9 mph - N/A   Scattered Clouds
2:51 PM 84.9 °F - 50.9 °F 31% 30.83 in 10.0 mi Variable 3.5 mph - N/A   Mostly Cloudy
3:51 PM 84.9 °F - 50.0 °F 30% 30.82 in 10.0 mi Variable 5.8 mph - N/A   Scattered Clouds
5:51 PM 84.9 °F - 52.0 °F 32% 30.82 in 10.0 mi NE 5.8 mph - N/A   Partly Cloudy
6:51 PM 81.0 °F 81.1 °F 57.9 °F 45% 30.83 in 10.0 mi SE 6.9 mph - N/A   Scattered Clouds
8:51 PM 73.9 °F - 56.8 °F 55% 30.85 in 10.0 mi SE 3.5 mph - N/A   Clear
9:51 PM 68.9 °F - 56.8 °F 65% 30.85 in 10.0 mi Calm Calm - N/A   Partly Cloudy
10:51 PM 65.8 °F - 59.0 °F 79% 30.86 in 10.0 mi WNW 3.5 mph - N/A   Clear
11:51 PM 64.9 °F - 59.0 °F 81% 30.87 in 10.0 mi Calm Calm - N/A   Clear